Location: Unspecified
(33.6682°S, 0.0000°E)
Time: 15:17:31
(UTC+00:00)

Tiros 1 despin weight - Pass Details

Date: 22 June 2019
Orbit: 594 x 642 km, 48.2° (Epoch: 16 July)

Event Time Altitude Azimuth Distance (km) Brightness Sun altitude
Rises 15:15:56 0° 227° (SW) 2,970 ? 16.6°
Reaches altitude 10° 15:18:54 10° 208° (SSW) 2,059 ? 16.2°
Maximum altitude 15:22:18 19° 163° (SSE) 1,543 ? 15.6°
Drops below altitude 10° 15:25:41 10° 117° (ESE) 2,050 ? 15.1°
Sets 15:28:37 0° 99° (E) 2,951 ? 14.7°
